Starlink 35776

operational
NORAD ID: 66282 Int'l Des: 2025-247 Owner: SPXS Country: US Constellation: starlink
NOTLE

Starlink 35776について

説明を読み込み中...

リアルタイム位置

3D地球を読み込み中...

次回通過

高度履歴

Altitude vs Time

uPlot chart will show altitude changes over time

軌道要素

1 66282U 25247T 25352.33335648 .00013106 00000-0 33722-3 0 9997
2 66282 53.1576 210.9243 0001411 86.6756 328.8888 15.39605367 5958
Epoch: Dec 18, 2025 • Age: 18 hours

現在のステータス

高度 450.6 km
速度 7.64 km/s
衛星直下点 -11.42°S, 77.89°W
打ち上げ日 Oct 31, 2025
運用期間 0.1 years
タイプ internet

技術仕様

分類 Payload
質量 575.00 kg
乾燥質量 530.00 kg
総質量 575.00 kg
長さ 0.30 m
直径 4.10 m
スパン 29.00 m
形状 Box + pan
製造者 SPXS
バスタイプ Starlink V2MO
フェーズステータス In Orbit
所有者/国 SPXS/US

大規模コンステレーション

Loading constellations...